Satellite: CO-58
Catalog number: 28895
Epoch time:      07115.67719620
Element set:    0713
Inclination:      098.1369 deg
RA of node:       013.5399 deg
Eccentricity:    0.0016837
Arg of perigee:   277.3414 deg
Mean anomaly:     082.5912 deg
Mean motion:   14.59541263 rev/day
Decay rate:       2.28e-06 rev/day^2
Epoch rev:           07943
Checksum:              339

Satellite: NCUBE2
Catalog number: 28897
Epoch time:      07116.64894621
Element set:     236
Inclination:      098.1370 deg
RA of node:       014.4552 deg
Eccentricity:    0.0016224
Arg of perigee:   276.3491 deg
Mean anomaly:     083.5871 deg
Mean motion:   14.59702555 rev/day
Decay rate:       1.55e-06 rev/day^2
Epoch rev:            7185
Checksum:              314

Satellite: NMARS
Catalog number: 29662
Epoch time:      07115.92421258
Element set:    0246
Inclination:      051.6341 deg
RA of node:       000.0924 deg
Eccentricity:    0.0006456
Arg of perigee:   179.2470 deg
Mean anomaly:     180.8551 deg
Mean motion:   16.12390165 rev/day
Decay rate:    4.27695e-03 rev/day^2
Epoch rev:           01995
Checksum:              295

Satellite: FCAL
Catalog number: 29667
Epoch time:      07115.94653900
Element set:    0131
Inclination:      051.6358 deg
RA of node:       007.8866 deg
Eccentricity:    0.0016491
Arg of perigee:   137.3541 deg
Mean anomaly:     222.8746 deg
Mean motion:   15.86224937 rev/day
Decay rate:     1.7409e-04 rev/day^2
Epoch rev:           01970
Checksum:              316

Satellite: FALCON
Catalog number: 30776
Epoch time:      07115.56630717
Element set:    0049
Inclination:      035.4335 deg
RA of node:       171.6506 deg
Eccentricity:    0.0001654
Arg of perigee:   354.5914 deg
Mean anomaly:     005.4784 deg
Mean motion:   15.02685688 rev/day
Decay rate:       2.55e-06 rev/day^2
Epoch rev:           00713
Checksum:              290

Satellite: MAST
Catalog number: 31126
Epoch time:      07116.41559587
Element set:      16
Inclination:      098.0847 deg
RA of node:       191.3391 deg
Eccentricity:    0.0094993
Arg of perigee:   185.0678 deg
Mean anomaly:     174.9547 deg
Mean motion:   14.53333903 rev/day
Decay rate:       3.93e-06 rev/day^2
Epoch rev:             133
Checksum:              313

Satellite: CAPE1
Catalog number: 31130
Epoch time:      07115.66683451
Element set:       5
Inclination:      098.0838 deg
RA of node:       190.5976 deg
Eccentricity:    0.0103076
Arg of perigee:   187.4083 deg
Mean anomaly:     172.5597 deg
Mean motion:   14.51841167 rev/day
Decay rate:       1.48e-06 rev/day^2
Epoch rev:              99
Checksum:              302

/EX






More information about the Keps mailing list